Chattanooga, TN

6:07 AM EDT on May 27, 2017 (GMT -0400)
Lovell

Weather History for KCHA - June, 2013

Change the Weather History Date:

Saturday, June 1, 2013

  Actual Average Record
Temperature  
Mean Temperature 80 °F 73 °F  
Max Temperature 87 °F 84 °F 97 °F (2011)
Min Temperature 72 °F 62 °F 39 °F (1889)
Cooling Degree Days 15 8  
Month to date cooling degree days 15 8  
Year to date cooling degree days 191 204  
Since 1 June cooling degree days 15 8  
Growing Degree Days 30 (Base 50)    
Moisture  
Dew Point 68 °F    
Average Humidity 65    
Maximum Humidity 79    
Minimum Humidity 51    
Precipitation  
Precipitation 0.14 in 0.12 in 2.21 in (1922)
Month to date precipitation 0.14 0.12  
Year to date precipitation 34.81 22.94  
Snow  
Snow 0.00 in - - ()
Month to date snowfall 0.0  
Since 1 June snowfall 0.0  
Snow Depth 0.00 in    
Sea Level Pressure  
Sea Level Pressure 30.01 in    
Wind  
Wind Speed 7 mph (SSE)    
Max Wind Speed 18 mph    
Max Gust Speed 25 mph    
Visibility 9 miles    
Events Rain , Thunderstorm    
T = Trace of Precipitation, MM = Missing Value Source: NWS Daily Summary

Daily Weather History Graph

Daily Weather History Graph

Search for Another Location

Airport or City:

Trip Planner

Search our weather history database for the weather conditions in past years. The results will help you decide how hot, cold, wet, or windy it might be!

Date:

Astronomy

Jun. 01, 2013 Rise Set
Actual Time 6:27 AM EDT 8:49 PM EDT
Civil Twilight 5:58 AM EDT 9:19 PM EDT
Nautical Twilight 5:22 AM EDT 9:55 PM EDT
Astronomical Twilight 4:43 AM EDT 10:34 PM EDT
Moon 2:08 AM EDT (6/1) 2:31 PM EDT (6/1)
Length of Visible Light 15h 20m
Length of Day
14h 21m
Last Quarter, 41% of the Moon is Illuminated
Jun 1
Last Quarter
Jun 8
New
Jun 16
First Quarter
Jun 23
Full
Jun 30
Last Quarter

Hourly Weather History & Observations

Time (EDT) Temp. Heat Index Dew Point Humidity Pressure Visibility Wind Dir Wind Speed Gust Speed Precip Events Conditions
12:53 AM 73.9 °F - 63.0 °F 68% 30.04 in 10.0 mi SE 3.5 mph - N/A   Partly Cloudy
1:53 AM 72.0 °F - 64.9 °F 78% 30.06 in 10.0 mi Calm Calm - N/A   Overcast
2:53 AM 73.0 °F - 64.9 °F 76% 30.06 in 10.0 mi Calm Calm - N/A   Overcast
3:53 AM 73.9 °F - 64.0 °F 71% 30.05 in 10.0 mi SE 3.5 mph - N/A   Overcast
4:53 AM 73.9 °F - 63.0 °F 68% 30.05 in 10.0 mi SSE 4.6 mph - N/A   Overcast
5:53 AM 73.0 °F - 63.0 °F 71% 30.04 in 10.0 mi SSE 3.5 mph - N/A   Mostly Cloudy
6:53 AM 73.0 °F - 63.0 °F 71% 30.05 in 10.0 mi SSE 3.5 mph - N/A   Mostly Cloudy
7:53 AM 73.9 °F - 64.0 °F 71% 30.05 in 10.0 mi SSE 4.6 mph - N/A   Mostly Cloudy
8:53 AM 73.9 °F - 64.9 °F 73% 30.05 in 10.0 mi South 6.9 mph - N/A   Mostly Cloudy
9:53 AM 78.1 °F - 66.0 °F 66% 30.04 in 10.0 mi South 8.1 mph 19.6 mph N/A   Mostly Cloudy
10:53 AM 80.1 °F 82.3 °F 66.9 °F 64% 30.04 in 10.0 mi South 10.4 mph - N/A   Mostly Cloudy
11:53 AM 81.0 °F 83.8 °F 68.0 °F 65% 30.04 in 10.0 mi South 10.4 mph - N/A   Mostly Cloudy
12:53 PM 84.0 °F 86.5 °F 66.9 °F 56% 30.02 in 10.0 mi SSE 13.8 mph 19.6 mph N/A   Mostly Cloudy
1:53 PM 84.9 °F 87.6 °F 66.9 °F 55% 30.01 in 10.0 mi South 9.2 mph 19.6 mph N/A   Mostly Cloudy
2:53 PM 86.0 °F 88.8 °F 66.9 °F 53% 29.99 in 10.0 mi SSE 15.0 mph 23.0 mph N/A   Mostly Cloudy
3:53 PM 82.9 °F 87.5 °F 71.1 °F 67% 29.97 in 10.0 mi South 10.4 mph 19.6 mph 0.01 in Rain Light Rain
4:53 PM 84.0 °F 87.0 °F 68.0 °F 58% 29.97 in 10.0 mi South 12.7 mph - 0.00 in   Scattered Clouds
5:39 PM 82.4 °F 86.3 °F 69.8 °F 66% 29.97 in 10.0 mi SSE 10.4 mph 18.4 mph 0.00 in Rain , Thunderstorm Light Thunderstorms and Rain
5:53 PM 81.0 °F 84.1 °F 69.1 °F 67% 29.95 in 9.0 mi South 5.8 mph - 0.00 in Thunderstorm Thunderstorm
6:27 PM 82.4 °F 86.3 °F 69.8 °F 66% 29.98 in 10.0 mi South 9.2 mph - N/A   Mostly Cloudy
6:53 PM 81.0 °F 84.1 °F 69.1 °F 67% 29.96 in 10.0 mi SSE 8.1 mph 18.4 mph N/A   Mostly Cloudy
7:27 PM 77.0 °F - 71.6 °F 83% 29.99 in 10.0 mi SSE 8.1 mph - 0.07 in Thunderstorm Thunderstorm
7:53 PM 77.0 °F - 71.1 °F 82% 29.96 in 9.0 mi South 4.6 mph - 0.07 in Rain , Thunderstorm Light Thunderstorms and Rain
8:06 PM 77.0 °F - 71.6 °F 83% 30.00 in 10.0 mi South 5.8 mph - 0.00 in   Mostly Cloudy
8:53 PM 77.0 °F - 72.0 °F 84% 30.00 in 10.0 mi SSW 4.6 mph - 0.00 in   Overcast
9:47 PM 75.2 °F - 71.6 °F 89% 29.98 in 6.0 mi SSE 6.9 mph - 0.02 in Thunderstorm Overcast
9:53 PM 75.0 °F - 71.1 °F 87% 29.96 in 6.0 mi SE 4.6 mph - 0.02 in Rain , Thunderstorm Light Thunderstorms and Rain
10:23 PM 75.2 °F - 71.6 °F 89% 30.00 in 6.0 mi South 6.9 mph - 0.02 in Rain Light Rain
10:53 PM 75.0 °F - 71.1 °F 87% 29.96 in 6.0 mi South 6.9 mph - 0.03 in Rain Light Rain
11:53 PM 73.9 °F - 71.1 °F 91% 29.95 in 6.0 mi South 3.5 mph - 0.01 in   Overcast